Weather reports worldwide

Advertisment
Schleswig, Germany (10035): temperature & dewpoint: 10.01.2021 07:00:00 - 16.01.2021 07:00:00 (CET)Schleswig, Germany (10035): temperature 5cm & temperature -5cm: 10.01.2021 07:00:00 - 16.01.2021 07:00:00 (CET)Schleswig, Germany (10035): temperature -20cm & temperature -100cm: 10.01.2021 07:00:00 - 16.01.2021 07:00:00 (CET)Schleswig, Germany (10035): wind speed & gusts: 10.01.2021 07:00:00 - 16.01.2021 07:00:00 (CET)Schleswig, Germany (10035): wind direction: 10.01.2021 07:00:00 - 16.01.2021 07:00:00 (CET)Schleswig, Germany (10035): reduced air pressure: 10.01.2021 07:00:00 - 16.01.2021 07:00:00 (CET)Schleswig, Germany (10035): visibility: 10.01.2021 07:00:00 - 16.01.2021 07:00:00 (CET)Schleswig, Germany (10035): sunshine duration: 10.01.2021 07:00:00 - 16.01.2021 07:00:00 (CET)Schleswig, Germany (10035): precipitation: 10.01.2021 07:00:00 - 16.01.2021 07:00:00 (CET)
Date & Time tt [°C] td [°C] tt 5cm [°C] tt -5cm [°C] tt -20cm [°C] tt -100cm [°C] ff [km/h] ff [kn] fx [km/h] fx [kn] dd ppp [hPa] vv [km] sd [min] rr [mm]
16.01.2021 07:00:00 -3,4 -5,4 -6,2 0,0 1,3 5,3 6 3 15 8 W 1026,0 38 0 0,0
16.01.2021 06:00:00 -3,3 -5,7 -7,1 0,0 1,3 5,3 9 5 16 8 W 1026,5 42 0 0,0
16.01.2021 05:00:00 -2,1 -5,3 -3,2 0,0 1,3 5,3 10 5 16 9 W 1026,8 52 0 0,0
16.01.2021 04:00:00 -1,8 -4,6 -2,2 0,0 1,3 5,3 8 4 15 8 W 1027,1 46 0 0,0
16.01.2021 03:00:00 -1,9 -5,0 -2,4 0,1 1,3 5,3 8 5 19 10 W 1027,7 47 0 0,0
16.01.2021 02:00:00 -2,0 -5,3 -3,1 0,1 1,3 5,3 10 6 19 11 W 1027,7 49 0 0,0
16.01.2021 01:00:00 -1,6 -5,5 -1,9 0,1 1,3 5,3 6 4 14 8 W 1028,2 47 0 0,0
16.01.2021 00:00:00 -1,7 -5,7 -2,0 0,1 1,3 5,4 7 4 14 8 W 1028,5 41 0 0,0
15.01.2021 23:00:00 -1,7 -5,8 -2,0 0,1 1,4 5,4 7 4 12 6 W 1028,6 32 0 0,0
15.01.2021 22:00:00 -1,7 -6,1 -2,1 0,1 1,4 5,4 8 5 14 7 W 1028,6 48 0 0,0
15.01.2021 21:00:00 -1,6 -6,3 -2,0 0,1 1,4 5,4 8 4 13 7 NW 1028,8 47 0 0,0
15.01.2021 20:00:00 -1,9 -6,6 -2,2 0,1 1,4 5,4 6 3 13 7 W 1029,0 46 0 0,0
15.01.2021 19:00:00 -1,8 -7,4 -2,2 0,1 1,4 5,4 6 3 20 11 NNW 1028,9 56 0 0,0
15.01.2021 18:00:00 -1,7 -6,8 -1,9 0,1 1,4 5,4 10 5 18 10 NNW 1028,8 48 0 0,0
15.01.2021 17:00:00 -1,5 -6,4 -1,7 0,1 1,4 5,4 8 5 20 11 NNW 1028,6 57 0 0,0
15.01.2021 16:00:00 -1,2 -6,6 -1,4 0,2 1,4 5,4 9 5 21 11 N 1028,4 59 0 0,0
15.01.2021 15:00:00 -1,1 -7,1 -1,3 0,2 1,4 5,4 12 6 23 12 N 1028,2 64 0 0,0
15.01.2021 14:00:00 -1,0 -6,9 -1,0 0,2 1,4 5,4 9 5 27 15 NNE 1028,0 58 0 0,0
15.01.2021 13:00:00 -0,9 -5,5 -0,9 0,2 1,4 5,4 8 4 20 11 NNE 1027,9 54 0 0,0
15.01.2021 12:00:00 -1,2 -4,9 -1,1 0,2 1,4 5,4 11 6 22 12 NNW 1027,9 45 0 0,0
15.01.2021 11:00:00 -1,2 -4,8 -1,3 0,2 1,4 5,4 13 7 24 13 NNW 1027,6 22 0 0,0
15.01.2021 10:00:00 -1,2 -4,4 -1,4 0,2 1,4 5,4 9 5 22 12 NNW 1026,9 39 0 0,0
15.01.2021 09:00:00 -1,2 -4,2 -1,4 0,2 1,5 5,4 9 5 25 14 N 1026,7 24 0 0,0
15.01.2021 08:00:00 -1,0 -4,5 -1,3 0,2 1,5 5,4 11 6 22 12 NNW 1026,0 31 0 0,0
15.01.2021 07:00:00 -1,0 -4,3 -1,3 0,2 1,5 5,4 11 6 24 13 NNW 1025,8 30 0 0,0
15.01.2021 06:00:00 -0,9 -4,1 -1,1 0,3 1,5 5,5 10 5 19 10 N 1025,3 36 0 0,0
15.01.2021 05:00:00 -0,8 -3,8 -1,1 0,3 1,5 5,5 9 5 18 10 NNW 1025,0 33 0 0,0
15.01.2021 04:00:00 -0,6 -3,2 -0,9 0,3 1,5 5,5 11 6 21 12 NNE 1024,7 31 0 0,0
15.01.2021 03:00:00 -0,2 -2,9 -0,5 0,3 1,5 5,5 8 4 21 11 N 1024,8 36 0 0,0
15.01.2021 02:00:00 -0,1 -2,6 -0,4 0,3 1,5 5,5 10 6 20 11 N 1024,6 42 0 0,0
15.01.2021 01:00:00 0,2 -2,3 -0,1 0,3 1,5 5,5 14 7 22 12 N 1024,5 40 0 0,0
15.01.2021 00:00:00 0,4 -1,3 0,1 0,3 1,5 5,5 14 7 22 12 N 1024,3 32 0 0,0
14.01.2021 23:00:00 0,5 -0,9 0,2 0,3 1,5 5,5 10 5 19 11 N 1024,1 23 0 0,0
14.01.2021 22:00:00 0,6 -0,5 0,2 0,3 1,5 5,5 10 5 19 10 N 1024,0 19 0 0,0
14.01.2021 21:00:00 0,7 -0,4 0,4 0,3 1,5 5,5 8 4 14 7 NNW 1023,6 14 0 0,0
14.01.2021 20:00:00 0,9 -0,4 0,6 0,3 1,5 5,5 6 3 16 9 N 1023,2 21 0 0,0
14.01.2021 19:00:00 0,7 -0,4 0,4 0,3 1,5 5,5 7 4 16 9 N 1023,0 21 0 0,0
14.01.2021 18:00:00 0,6 -0,6 0,2 0,3 1,5 5,5 9 5 18 10 NNW 1023,0 19 0 0,0
14.01.2021 17:00:00 0,7 -0,6 0,3 0,3 1,5 5,5 8 4 18 10 NNW 1022,6 27 0 0,0
14.01.2021 16:00:00 0,8 -0,8 0,4 0,3 1,5 5,5 9 5 17 9 N 1021,9 27 0 0,0
14.01.2021 15:00:00 0,8 -1,0 0,6 0,3 1,5 5,5 8 5 22 12 N 1021,5 32 0 0,0
14.01.2021 14:00:00 0,5 -1,4 0,5 0,3 1,5 5,5 11 6 26 14 N 1021,3 34 0 0,0
14.01.2021 13:00:00 0,6 -1,5 0,5 0,3 1,5 5,6 10 6 21 12 N 1021,6 41 0 0,0
14.01.2021 12:00:00 0,6 -1,6 0,4 0,3 1,5 5,6 8 5 19 10 N 1021,5 35 0 0,0
14.01.2021 11:00:00 0,4 -2,0 0,2 0,3 1,5 5,6 11 6 26 14 N 1021,0 39 0 0,0
14.01.2021 10:00:00 0,1 -2,2 -0,3 0,2 1,6 5,6 12 7 28 15 N 1020,3 43 0 0,0
14.01.2021 09:00:00 0,4 -2,9 -0,3 0,2 1,6 5,6 18 10 31 17 N 1019,6 46 0 0,0
14.01.2021 08:00:00 0,6 -2,1 -0,2 0,2 1,6 5,6 16 9 33 18 N 1018,6 44 0 0,0
14.01.2021 07:00:00 0,2 -2,0 -1,2 0,2 1,6 5,6 14 8 34 18 N 1017,9 39 0 0,0
14.01.2021 06:00:00 0,4 -1,7 -0,7 0,2 1,6 5,6 15 8 34 18 N 1017,2 39 0 0,0
14.01.2021 05:00:00 0,8 -1,5 -0,2 0,3 1,6 5,6 15 8 34 18 N 1016,1 35 0 0,0
14.01.2021 04:00:00 1,3 -1,5 0,0 0,3 1,6 5,6 20 11 32 18 N 1014,9 43 0 0,0
14.01.2021 03:00:00 0,6 -0,5 -0,1 0,3 1,6 5,6 11 6 27 15 N 1014,1 27 0 0,3
14.01.2021 02:00:00 0,6 -1,0 0,0 0,2 1,6 5,6 21 11 46 25 N 1013,0 1,7 0 0,1
14.01.2021 01:00:00 1,3 -2,5 0,6 0,2 1,6 5,6 19 10 52 28 N 1011,8 52 0 0,0
14.01.2021 00:00:00 1,2 -2,5 0,6 0,2 1,7 5,6 22 12 46 25 N 1010,9 54 0 0,0
13.01.2021 23:00:00 0,5 -2,9 -0,1 0,2 1,7 5,6 20 11 35 19 NNW 1009,5 58 0 0,0
13.01.2021 22:00:00 0,0 -3,5 -0,8 0,3 1,7 5,6 19 11 41 22 NW 1008,6 66 0 0,0
13.01.2021 21:00:00 0,7 -3,1 0,0 0,3 1,7 5,6 19 10 37 20 NNW 1007,8 60 0 0,0
13.01.2021 20:00:00 0,7 -2,8 0,0 0,3 1,7 5,6 21 11 43 23 NW 1006,7 58 0 0,0
13.01.2021 19:00:00 0,4 -2,7 -0,3 0,3 1,8 5,7 20 11 42 23 NW 1005,8 48 0 0,0
13.01.2021 18:00:00 0,3 -3,2 -0,3 0,3 1,8 5,7 19 10 48 26 NW 1005,1 63 0 0,0
13.01.2021 17:00:00 0,0 -3,3 -1,1 0,4 1,8 5,7 26 14 47 26 NW 1004,3 68 0 0,0
13.01.2021 16:00:00 1,3 -1,2 0,7 0,7 1,8 5,7 21 12 48 26 NW 1003,2 62 0 0,0
13.01.2021 15:00:00 2,1 -0,6 1,2 0,8 1,8 5,7 27 15 57 31 NW 1001,8 75 30 0,0
13.01.2021 14:00:00 2,8 -1,4 1,2 0,5 1,8 5,7 34 18 60 33 WNW 1000,2 38 1 0,0
13.01.2021 13:00:00 2,0 1,4 1,4 0,5 1,9 5,7 14 7 51 27 W 1000,7 32 0 0,7
13.01.2021 12:00:00 2,4 1,6 1,8 0,4 1,9 5,7 22 12 67 36 W 1001,6 4,6 0 2,2
13.01.2021 11:00:00 3,3 1,2 2,2 0,5 1,9 5,7 27 14 53 29 W 1002,1 24 0 0,0
13.01.2021 10:00:00 2,4 0,6 1,2 0,4 1,9 5,7 15 8 40 22 W 1002,9 28 0 0,0
13.01.2021 09:00:00 1,6 0,5 0,6 0,4 2,0 5,7 18 10 40 21 W 1003,9 47 0 0,0
13.01.2021 08:00:00 1,3 0,7 0,6 0,4 2,0 5,7 18 10 40 22 W 1004,3 33 0 0,8
13.01.2021 07:00:00 1,2 0,6 0,5 0,3 2,0 5,7 14 8 32 17 W 1004,7 31 0 0,4
13.01.2021 06:00:00 1,3 0,2 -0,1 0,3 2,1 5,7 19 11 35 19 W 1004,8 33 0 0,0
13.01.2021 05:00:00 1,0 0,0 -0,4 0,4 2,1 5,7 17 9 36 19 W 1005,0 60 0 0,0
13.01.2021 04:00:00 1,0 0,0 -0,1 0,4 2,2 5,7 18 10 35 19 W 1005,3 37 0 0,0
13.01.2021 03:00:00 0,8 0,0 0,0 0,4 2,2 5,7 22 12 45 24 WNW 1006,1 6 0 1,1
13.01.2021 02:00:00 1,2 0,3 0,5 0,4 2,3 5,7 18 10 32 17 W 1006,1 36 0 0,0
13.01.2021 01:00:00 0,9 0,4 0,1 0,4 2,4 5,7 15 8 40 22 WNW 1006,3 49 0 0,8
13.01.2021 00:00:00 1,7 -0,2 0,0 0,4 2,4 5,7 16 9 34 18 W 1005,6 35 0 0,0
12.01.2021 23:00:00 1,4 0,6 0,5 0,4 2,5 5,6 18 10 50 27 W 1005,4 20 0 0,4
12.01.2021 22:00:00 1,9 -0,4 0,3 0,5 2,6 5,6 21 11 36 19 WNW 1005,3 43 0 0,0
12.01.2021 21:00:00 1,4 -0,7 -0,2 0,5 2,7 5,6 16 8 32 17 W 1004,6 33 0 0,0
12.01.2021 20:00:00 1,4 -0,6 -0,2 0,6 2,9 5,6 18 10 30 16 W 1004,1 34 0 0,0
12.01.2021 19:00:00 0,9 -0,4 -0,5 0,7 3,0 5,6 14 7 28 15 W 1003,6 36 0 0,0
12.01.2021 18:00:00 0,9 0,0 -0,2 0,8 3,2 5,6 14 8 23 12 W 1003,2 43 0 0,0
12.01.2021 17:00:00 0,9 0,4 -0,1 1,3 3,3 5,6 11 6 22 12 W 1002,7 47 15 0,0
12.01.2021 16:00:00 1,5 0,6 0,4 2,6 3,2 5,6 14 7 35 19 NW 1001,8 60 6 0,1
12.01.2021 15:00:00 2,3 1,1 2,1 3,9 3,0 5,6 21 12 42 23 WNW 1000,4 30 19 0,2
12.01.2021 14:00:00 4,5 1,2 4,3 4,1 2,9 5,6 17 9 33 18 W 999,8 56 29 0,0
12.01.2021 13:00:00 4,4 0,7 3,1 2,7 2,9 5,6 10 5 24 13 WSW 1000,1 55 30 0,0
12.01.2021 12:00:00 3,3 0,4 1,3 0,9 3,0 5,6 11 6 20 11 SW 1000,5 51 51 0,0
12.01.2021 11:00:00 2,8 -0,6 0,0 0,7 3,1 5,6 10 5 15 8 WSW 1000,9 45 60 0,0
12.01.2021 10:00:00 0,9 0,1 -1,0 0,7 3,3 5,6 8 5 13 7 W 1001,0 46 48 0,0
12.01.2021 09:00:00 0,4 0,1 -2,5 0,9 3,5 5,6 7 4 14 8 W 1000,4 22 0 0,0
12.01.2021 08:00:00 1,0 0,4 -1,3 1,4 3,7 5,6 8 4 18 10 WNW 1000,1 35 0 0,0
12.01.2021 07:00:00 2,5 1,8 1,6 2,6 3,8 5,6 9 5 19 11 WNW 999,6 30 0 0,0
12.01.2021 06:00:00 2,9 2,5 2,2 3,0 3,9 5,6 9 5 15 8 WNW 999,2 46 0 0,0
12.01.2021 05:00:00 3,2 2,8 2,7 3,6 3,9 5,6 9 5 19 10 W 999,0 41 0 0,1
12.01.2021 04:00:00 3,7 3,2 3,3 3,9 3,9 5,6 13 7 29 16 WNW 999,1 25 0 0,2
12.01.2021 03:00:00 4,5 3,7 4,1 4,6 3,8 5,6 16 9 51 27 NW 998,4 20 0 0,8
12.01.2021 02:00:00 6,5 6,2 6,0 4,8 3,7 5,6 29 15 54 29 WSW 997,0 11 0 1,8
12.01.2021 01:00:00 5,8 5,5 5,4 4,5 3,6 5,6 27 15 54 29 WSW 997,4 9 0 2,3
12.01.2021 00:00:00 5,1 4,7 4,7 4,1 3,5 5,6 27 14 56 30 SW 998,6 7 0 1,8
11.01.2021 23:00:00 4,5 4,1 4,2 3,8 3,5 5,6 29 15 60 33 SW 999,4 2,5 0 0,5
11.01.2021 22:00:00 4,3 3,9 4,0 3,7 3,5 5,7 29 16 59 32 SW 1000,6 4,2 0 0,8
11.01.2021 21:00:00 4,1 3,6 3,8 3,6 3,5 5,7 31 17 61 33 SW 1001,9 1,9 0 0,4
11.01.2021 20:00:00 4,1 3,6 3,8 3,6 3,4 5,7 27 15 64 34 SW 1003,0 3,5 0 0,0
11.01.2021 19:00:00 4,2 3,7 3,8 3,6 3,4 5,7 27 15 56 30 SW 1003,7 3,4 0 0,1
11.01.2021 18:00:00 4,1 3,7 3,8 3,6 3,4 5,7 30 16 52 28 SW 1004,5 3,4 0 0,3
11.01.2021 17:00:00 4,0 3,7 3,7 3,6 3,3 5,7 27 14 56 31 SW 1005,6 1,6 0 0,5
11.01.2021 16:00:00 4,1 3,5 3,7 3,6 3,3 5,7 25 13 51 28 SW 1006,4 7 0 0,7
11.01.2021 15:00:00 3,9 3,4 3,6 3,6 3,2 5,7 27 15 49 26 SW 1007,3 4,0 0 0,0
11.01.2021 14:00:00 3,8 3,2 3,4 3,5 3,2 5,7 24 13 53 28 SW 1008,1 8 0 0,0
11.01.2021 13:00:00 3,6 3,2 3,3 3,5 3,1 5,7 27 15 54 29 SW 1009,2 6 0 0,0
11.01.2021 12:00:00 4,0 3,6 3,8 3,6 3,1 5,7 23 12 45 24 SW 1010,3 4,4 0 -
11.01.2021 11:00:00 4,1 3,7 3,8 - - - - - 41 22 - - 2,9 0 0,2
11.01.2021 10:00:00 4,1 3,8 3,8 3,4 2,9 5,7 24 13 42 23 SW 1011,3 2,4 0 0,8
11.01.2021 09:00:00 4,0 3,6 3,7 3,3 2,8 5,7 23 12 42 23 SW 1011,5 5 0 0,5
11.01.2021 08:00:00 4,1 3,7 3,7 3,3 2,8 5,7 22 12 45 24 SW 1011,9 6 0 1,0
11.01.2021 07:00:00 4,2 3,8 3,8 3,2 2,7 5,7 21 11 44 24 SW 1012,3 7 0 1,0
11.01.2021 06:00:00 4,0 3,7 3,7 3,0 2,6 5,7 19 10 37 20 SW 1013,0 8 0 1,2
11.01.2021 05:00:00 3,7 3,6 3,4 2,8 2,5 5,7 16 8 36 19 SW 1014,1 4,6 0 1,0
11.01.2021 04:00:00 3,6 3,4 3,3 2,4 2,5 5,7 18 10 29 15 SW 1014,9 4,2 0 0,1
11.01.2021 03:00:00 2,8 2,5 2,3 1,9 2,5 5,7 15 8 22 12 SSW 1015,5 12 0 0,0
11.01.2021 02:00:00 2,4 2,1 1,8 1,6 2,5 5,7 10 5 16 9 SW 1015,9 26 0 0,0
11.01.2021 01:00:00 2,6 2,3 2,0 2,0 2,5 5,7 10 6 20 11 SW 1016,3 24 0 0,0
11.01.2021 00:00:00 2,7 2,4 2,3 2,0 2,5 5,7 9 5 16 8 SW 1016,8 30 0 0,0
10.01.2021 23:00:00 2,8 2,5 1,8 2,1 2,5 5,7 5 3 20 11 SW 1016,9 18 0 0,0
10.01.2021 22:00:00 3,3 3,3 2,7 2,4 2,4 5,7 10 6 18 10 WNW 1017,1 3,0 0 0,0
10.01.2021 21:00:00 3,5 3,5 3,2 2,5 2,4 5,7 11 6 34 18 WSW 1017,0 2,1 0 0,0
10.01.2021 20:00:00 3,2 3,1 3,0 2,4 2,3 5,7 14 8 29 16 SW 1017,0 3,6 0 0,2
10.01.2021 19:00:00 2,9 2,7 2,6 2,2 2,2 5,7 18 10 42 23 SW 1017,1 2,4 0 0,0
10.01.2021 18:00:00 2,5 2,3 2,2 2,0 2,2 5,7 19 10 36 19 SW 1017,3 2,5 0 0,1
10.01.2021 17:00:00 2,3 1,9 2,1 1,8 2,1 5,7 21 11 38 20 SW 1017,6 2,5 0 0,1
10.01.2021 16:00:00 1,9 1,6 1,7 1,7 2,0 5,7 23 12 39 21 SW 1017,8 2,4 0 0,2
10.01.2021 15:00:00 1,8 1,3 1,5 1,7 1,9 5,7 22 12 36 20 SSW 1018,3 3,0 0 0,0
10.01.2021 14:00:00 1,7 0,9 1,5 1,6 1,8 5,7 18 10 35 19 SW 1018,8 6 0 0,0
10.01.2021 13:00:00 1,3 0,9 1,3 0,6 1,8 5,7 21 11 35 19 SW 1019,4 6 0 0,0
10.01.2021 12:00:00 0,4 0,3 0,2 0,3 1,9 5,7 17 9 32 17 SSW 1020,1 2,5 0 0,0
10.01.2021 11:00:00 -0,1 -0,2 -0,1 0,3 1,9 5,8 18 10 32 17 SSW 1020,6 1,5 0 0,0
10.01.2021 10:00:00 -0,5 -0,6 -0,4 0,3 1,9 5,8 16 9 29 16 SSW 1021,0 1,4 0 0,0
10.01.2021 09:00:00 -0,9 -1,0 -0,8 0,3 1,9 5,8 20 11 33 18 SSW 1020,9 2,7 0 0,0
10.01.2021 08:00:00 -1,3 -1,4 -1,2 0,3 2,0 5,8 19 10 28 15 SSW 1021,3 0,6 0 0,0
10.01.2021 07:00:00 -1,8 -1,9 -1,6 0,3 2,0 5,8 13 7 29 16 SSW 1021,5 1,2 0 0,0

tt = temperature
td = dewpoint
tt 5cm = temperature 5cm
tt -5cm = temperature -5cm
tt -20cm = temperature -20cm
tt -100cm = temperature -100cm
ff = wind speed
fx = gusts
dd = wind direction
ppp = reduced air pressure
vv = visibility
sd = sunshine duration
rr = precipitation

Next stations